AB9HP Weather Reports


time (UTC)temp
F
wind
direction
speed
knots
gust
knots
rain 1hr
in
rain 24hr
in
rain mn
in
humidity
%
barometer
mb
20260504213008 76 221 13.0 27.8 0.00 0.01 0.00 48 1003.3
20260504211505 75 222 7.0 20.9 0.00 0.01 0.00 50 1003.5
20260504210003 75 161 7.0 17.4 0.00 0.03 0.00 51 1003.5
20260504203105 75 266 6.1 21.7 0.00 0.03 0.00 52 1003.5
20260504201557 75 219 7.0 25.2 0.00 0.03 0.00 51 1003.7
20260504193050 76 224 11.3 23.5 0.00 0.03 0.00 51 1004.3
20260504191605 75 229 7.8 20.9 0.00 0.03 0.00 52 1004.1
20260504190049 76 187 9.6 26.1 0.00 0.03 0.00 52 1004.3
20260504183042 75 236 10.4 23.5 0.00 0.03 0.00 53 1004.4
20260504181539 74 231 13.0 21.7 0.00 0.03 0.00 53 1004.5
20260504180034 74 194 5.2 17.4 0.00 0.03 0.00 56 1004.5
20260504173030 73 291 6.1 18.2 0.00 0.03 0.00 58 1004.8
20260504171539 72 229 7.8 15.6 0.00 0.03 0.00 59 1005.1
20260504081522 52 165 0.0 6.1 0.00 0.03 0.00 73 1008.5
20260504044530 48 139 0.0 0.0 0.00 0.03 0.00 80 1010.3
20260504043038 48 131 0.0 0.9 0.00 0.03 0.00 81 1010.4
20260504041524 48 172 0.0 0.9 0.00 0.03 0.00 81 1010.5
20260504040024 48 123 0.0 0.0 0.00 0.03 0.00 81 1010.7
20260504034518 49 149 0.0 0.9 0.00 0.03 0.03 80 1010.8
20260504033019 49 95 0.0 0.9 0.00 0.03 0.03 80 1011.1
20260504031515 49 142 0.0 0.9 0.00 0.03 0.03 79 1011.2
20260504030016 50 135 0.0 2.6 0.00 0.03 0.03 78 1011.3
20260504024512 50 139 0.0 0.9 0.00 0.03 0.03 77 1011.4
20260504023010 51 207 0.0 3.5 0.00 0.03 0.03 76 1011.4
20260504021511 50 138 0.0 2.6 0.00 0.03 0.03 77 1011.6
20260504020006 50 81 0.0 6.1 0.00 0.03 0.03 77 1011.7
20260504014506 50 118 0.0 5.2 0.00 0.03 0.03 77 1011.8
20260504013003 50 138 0.0 5.2 0.00 0.03 0.03 77 1011.7
20260504011602 50 147 0.0 6.1 0.00 0.03 0.03 79 1011.7
20260504010104 49 155 0.0 7.0 0.00 0.03 0.03 80 1011.9
20260504004608 49 161 0.0 6.1 0.00 0.03 0.03 82 1011.9
20260504003054 49 97 0.0 3.5 0.00 0.03 0.03 82 1012.0
20260504001552 49 146 0.0 5.2 0.00 0.03 0.03 82 1011.9
20260504000049 49 115 1.7 7.0 0.00 0.03 0.03 82 1012.1
20260503234547 49 103 1.7 7.8 0.00 0.03 0.03 82 1012.3
20260503233047 49 117 3.5 9.6 0.00 0.03 0.03 80 1012.3
20260503231543 49 121 0.0 5.2 0.00 0.03 0.03 81 1012.5
20260503230141 49 58 0.9 5.2 0.00 0.03 0.03 81 1012.6
20260503224537 49 219 0.0 7.8 0.00 0.03 0.03 83 1012.6
20260503223038 48 159 0.0 8.7 0.00 0.03 0.03 83 1012.8
20260503221536 48 109 1.7 7.0 0.00 0.03 0.03 83 1012.9
20260503220031 48 125 2.6 8.7 0.02 0.03 0.03 83 1012.9